Location: Unspecified
(54.1780°N, 0.0000°E)
Time: 03:32:20
(UTC+00:00)

Transit 2A - Pass Details

Date: 22 June 2019
Orbit: 594 x 964 km, 66.7° (Epoch: 19 July)

Event Time Altitude Azimuth Distance (km) Brightness Sun altitude
Rises 00:25:18 0° 200° (SSW) 3,631 - -12.2°
Reaches altitude 10° 00:27:54 10° 196° (SSW) 2,697 - -12.2°
Exits shadow 00:29:04 16° 193° (SSW) 2,292 7.8 -12.2°
Maximum altitude 00:34:05 54° 121° (ESE) 1,147 6.7 -12.1°
Drops below altitude 10° 00:40:06 10° 46° (NE) 2,632 9.6 -11.9°
Sets 00:42:37 0° 43° (NE) 3,538 10.5 -11.9°
